#timestamp,LO_Frequency,Hit,StdDev 
1710158415.0,286046985.3,P
1710158415.9,286046985.3,Y
1710158435.8,286046996.2,P
1710158455.6,286046998.3,N
1710158475.4,286047004.3,N
1710158495.3,286047001.7,N
1710158515.1,286047001.1,N
1710158535.8,286046996.7,N
1710158555.7,286046997.8,N
1710158575.5,286046999.5,N
1710158595.4,286046997.0,N
1710158615.2,286046999.4,N
1710158635.0,286046999.9,N
1710158635.9,286046999.9,N
1710158655.8,286046999.9,N
1710158675.6,286046999.9,N
1710158695.4,286046999.9,N
1710158715.3,286046999.4,N
1710158735.1,286046999.3,N
1710158755.9,286046995.6,N
1710158775.7,286046993.1,N
1710158795.5,286046987.4,Y
1710158815.4,286046987.3,P
1710158835.2,286046988.7,N
1710158855.1,286046991.6,N
1710158856.0,286046991.6,N
1710158875.8,286046988.4,Y
1710158895.6,286046997.2,P
1710158915.5,286046998.7,N
1710158965.3,286047002.5,E
1710158975.3,286047002.3,N
1710158995.1,286047000.1,P
1710158996.0,286047000.1,N
1710159015.8,286047001.8,N
1710159035.7,286047003.5,Y
1710159055.5,286047001.5,P
1710159075.4,286047002.8,P
1710159095.2,286047005.9,P
1710159115.0,286047001.3,N
1710159115.9,286047001.3,N
1710159135.8,286046999.8,N
1710159155.6,286046995.0,N
1710159175.4,286046993.3,N
1710159195.3,286046995.0,N
1710159215.1,286046996.9,N
1710159235.9,286046999.7,N
1710159255.7,286046999.9,N
1710159275.5,286047001.7,N
1710159295.4,286047001.8,N
1710159315.2,286047002.0,N
1710159335.0,286047005.3,N
1710159336.0,286047005.3,N
1710159355.8,286047003.7,N
1710159375.6,286047001.5,N
1710159395.5,286047002.3,N
1710159415.3,286047002.5,N
1710159435.1,286047002.4,N
1710159455.9,286046997.5,N
1710159475.7,286046994.2,N
1710159495.6,286046992.9,N
1710159515.4,286046991.3,N
1710159535.2,286046989.1,N
1710159555.1,286046989.8,N
1710159556.0,286046989.8,N
1710159575.8,286046988.8,N
1710159595.7,286046983.7,Y
1710159615.5,286046986.5,P
1710159635.3,286046980.8,P
1710159655.2,286046974.2,P
1710159675.0,286046975.4,N
1710159675.9,286046975.4,N
1710159695.7,286046976.3,N
1710159715.6,286046978.4,N
1710159735.4,286046972.7,Y
1710159755.3,286046985.3,P
1710159775.1,286046986.0,P
1710159795.8,286046987.1,P
1710159815.7,286046986.6,Y
1710159835.5,286047005.8,P
1710159855.4,286047006.9,N
1710159875.2,286047008.8,N
1710159895.0,286047009.3,N
1710159895.9,286047009.3,N
1710159915.8,286047010.5,N
1710159935.6,286047005.1,N
1710159955.4,286047005.0,N
1710159975.3,286047004.4,N
1710159995.1,286047001.3,N
1710160015.9,286046999.3,N
1710160035.7,286046987.0,N
1710160055.5,286046993.7,N
1710160075.4,286046997.2,N
1710160095.2,286047000.4,N
1710160115.1,286047000.0,N
1710160116.0,286047000.0,N
1710160135.8,286046999.7,N
1710160155.6,286047003.2,N
1710160175.5,286047003.4,N
1710160195.3,286047005.9,N
1710160215.1,286047002.4,N
1710160235.9,286047000.0,N
1710160255.7,286047000.2,N
1710160275.6,286047002.6,N
1710160295.4,286047002.5,N
1710160315.2,286047002.2,N
1710160335.1,286046996.9,N
1710160336.0,286046996.9,N
1710160355.8,286046998.8,N
1710160375.7,286047001.1,N
1710160395.5,286046999.5,N
1710160415.3,286046993.6,N
1710160435.2,286046988.8,N
1710160455.0,286046988.7,N
1710160455.9,286046988.7,N
1710160475.8,286046990.9,N
1710160495.6,286046994.3,N
1710160515.4,286046990.6,N
1710160535.3,286046988.7,N
1710160555.1,286046985.7,N
1710160575.8,286046987.4,N
1710160595.7,286046990.3,N
1710160615.5,286046992.3,N
1710160635.4,286046992.2,N
1710160655.2,286046992.2,N
1710160675.0,286046998.5,N
1710160675.9,286046998.5,N
1710160695.8,286046995.8,N
1710160715.6,286046992.4,N
1710160735.5,286046996.4,N
1710160755.3,286046994.9,N
1710160775.1,286046993.7,N
1710160795.9,286046991.9,N
1710160815.7,286046992.8,N
1710160835.6,286046985.3,Y
1710160855.4,286046987.8,P
1710160875.2,286046988.7,P
1710160895.1,286046990.2,P
1710160896.0,286046990.2,Y
1710160915.8,286047000.4,P
1710160935.6,286047001.4,N
1710160955.5,286047008.2,N
1710160975.3,286047008.1,N
1710160995.2,286047006.3,N
1710161015.0,286047004.7,N
1710161015.9,286047004.7,N
1710161035.8,286047005.7,N
1710161055.6,286047000.9,N
1710161075.4,286046998.7,N
1710161095.3,286047004.1,N
1710161115.1,286047004.4,N
1710161135.9,286047002.4,N
1710161155.7,286046998.3,N
1710161175.6,286046997.0,N
1710161195.4,286046990.6,N
1710161215.2,286046989.2,N
1710161235.1,286046989.9,N
1710161236.0,286046989.9,N
1710161255.8,286046985.8,N
1710161275.6,286046981.2,N
1710161295.5,286046983.3,N
1710161315.3,286046985.9,N
1710161335.2,286046985.9,N
1710161355.9,286046981.1,N
1710161375.7,286046981.1,N
1710161395.6,286046983.6,N
1710161415.4,286046980.4,N
1710161435.2,286046974.7,N
1710161455.1,286046978.8,N
1710161456.0,286046978.8,N
1710161475.8,286046979.6,N
1710161495.7,286046981.6,N
1710161515.5,286046986.6,N
1710161535.3,286046983.7,N
1710161555.2,286046985.9,N
1710161575.0,286046985.7,N
1710161575.9,286046985.7,N
1710161595.7,286046986.1,N
1710161615.6,286046986.1,N
1710161635.4,286046985.8,N
1710161655.3,286046983.0,N
1710161675.1,286046984.2,N
1710161676.0,286046984.2,Y
1710161695.8,286046997.9,P
1710161715.7,286046995.1,N
1710161735.5,286046990.3,N
1710161755.3,286046992.5,N
1710161775.2,286046994.4,N
1710161795.0,286046992.1,N
1710161795.9,286046992.1,N
1710161815.8,286046997.6,N
1710161835.6,286047001.1,N
1710161855.4,286046998.0,N
1710161875.3,286046995.2,N
1710161895.1,286047000.8,N
1710161915.8,286047002.3,N
1710161935.7,286047001.9,N
1710161955.5,286046996.6,N
1710161975.4,286046995.7,N
1710161995.2,286046990.5,N
